{"data":{"norad_id":60929,"intl_designator":"2024-155F","name":"STARLINK-11240 [DTC]","alt_names":[],"object_type":"PAYLOAD","status":"ACTIVE","operator":null,"country":"US","launch_date":"2024-08-31","launch_site_code":"AFWTR","launch_vehicle":null,"mission":null,"orbit_class":"UNKNOWN","rcs_meters":null,"size_class":null,"mass_kg":null,"dimensions":null,"purposes":["comms"],"wikipedia_slug":null,"has_3d_model":false,"image_url":null,"decayed_at":null,"tle_current":{"epoch":"2026-05-24T21:45:39.858048Z","epoch_age_seconds":76416,"freshness":"FRESH","line1":"1 60929U 24155F   26144.90671132  .00000724  00000+0  10831-4 0  9998","line2":"2 60929  53.1591 325.4902 0000822 100.3375 259.7736 15.69710130100371","mean_motion":15.6971013,"eccentricity":8.22e-5,"inclination_deg":53.1591,"raan_deg":325.4902,"arg_perigee_deg":100.3375,"mean_anomaly_deg":259.7736,"bstar":1.0831e-5,"rev_number":10037,"period_min":91.73668261923,"perigee_km":359.17252603986,"apogee_km":360.28023077927,"semimajor_km":6737.8633784096,"source":"CELESTRAK","updated_at":"2026-05-25T13:38:19.318009Z"}}}